www.pogodaiklimat.ru

Погода и климат >> Архив погоды >> Филиппины >> Дагупан


ПОГОДА в Дагупане

  • Прогноз погоды в Дагупане
  • Монитор погоды в Дагупане

АРХИВ ПОГОДЫ в Дагупане

Время (UTC), дата Ветер
(напр.,м/с)
 
Видим.   Явления Облачность Т
(С)
Тd
(С)
f
(%)
Тe
(С)
Тes
(С)
Комфортность P
(гПа)
Po
(гПа)
Тmin
(С)
Tmax
(С)
R
(мм)
R24
(мм)
S
(см)
09 12.06 З 2 10 км осадки на расстоянии {туман} 10/4 480 м
[Sc Ac As]
+32.0 +26.9 74 +49 +50 опасность
перегрева
1006.2 1006.0
12 12.06 В 2 8000 м осадки на расстоянии {туман} 10/4 480 м
[Sc Ac As]
+28.0 +26.0 89 +42 +42 опасность
перегрева
1008.9 1008.7 +35.0
15 12.06 Ю 1 8000 м 6/4 480 м
[Sc Ac As]
+27.5 +25.5 89 +40 +40 очень
душно
1009.8 1009.6
18 12.06 Ю 1 8000 м 5/3 480 м
[Cu med, cong Ac As]
+26.3 +24.6 90 +37 +37 очень
душно
1008.6 1008.4
21 12.06 ЮВ 1 8000 м 10/4 480 м
[Sc Ac As]
+26.0 +24.0 89 +36 +36 очень
душно
1008.4 1008.2
00 13.06 Ю 1 10 км осадки на расстоянии {туман} 10/4 480 м
[Sc Ac As]
+27.8 +25.4 87 +41 +42 опасность
перегрева
1009.2 1009.0 +26.0
03 13.06 Ю 2 10 км слаб. ливневой дождь {туман} 10/4 480 м
[Sc Ac As]
+31.0 +27.2 80 +49 +53 опасность
перегрева
1009.9 1009.7 0.8
06 13.06 ЮВ 2 10 км слаб. дождь {гроза} 10/4 480 м
[Sc As op]
+29.5 +26.5 84 +45 +47 опасность
перегрева
1008.5 1008.3 3
09 13.06 Ю 1 10 км осадки на расстоянии 10/4 480 м
[Sc Ac As]
+29.0 +26.4 86 +44 +45 опасность
перегрева
1007.2 1007.0 0.8
12 13.06 З 2 8000 м осадки на расстоянии 9/4 480 м
[Sc Ac As]
+29.0 +25.7 82 +43 +43 опасность
перегрева
1008.5 1008.3 +30.0 0.8
15 13.06 Ю 2 8000 м 8/4 480 м
[Sc Ac As]
+27.5 +25.9 91 +41 +41 опасность
перегрева
1008.8 1008.6
18 13.06 ЮВ 2 8000 м 5/3 480 м
[Cu med, cong Ac As]
+26.5 +24.8 90 +38 +38 очень
душно
1008.1 1007.9
21 13.06 Ю 1 8000 м 8/4 480 м
[Sc Ac As]
+25.8 +24.7 94 +37 +37 очень
душно
1007.8 1007.6
00 14.06 ЮВ 5 12 км мгла {туман} 6/5 480 м
[Cu Sc Ac As]
+27.5 +25.5 89 +40 +42 очень
душно
1008.0 1007.8 +25.8 3
03 14.06 В 3 12 км мгла {туман} 8/4 480 м
[Sc Ac As]
+32.5 +26.7 72 +50 +55 опасность
перегрева
1007.3 1007.1
06 14.06 Ю 3 10 км слаб. дождь {гроза} 10/4 480 м
[Sc Ac As]
+28.5 +25.9 86 +43 +45 опасность
перегрева
1007.0 1006.8 15
09 14.06 СЗ 4 10 км слаб. дождь {гроза} 10/5 480 м
[Sc Ac As]
+27.0 +25.0 89 +39 +39 очень
душно
1006.9 1006.7 7
12 14.06 Ю 2 8000 м зарница {гроза, ливн. осадки} 8/4 480 м
[Cb calv Ac As]
+27.5 +24.8 85 +39 +39 очень
душно
1007.5 1007.3 +29.0 8
15 14.06 Ю 4 8000 м зарница {гроза} 8/3 480 м
[Cb cap Ac As]
+26.0 +24.7 93 +37 +37 очень
душно
1008.2 1008.0
18 14.06 Ю 2 8000 м гроза без осадков 8/3 480 м
[Cb cap Ac As]
+25.7 +24.8 95 +36 +36 очень
душно
1007.6 1007.4
21 14.06 Ю 3 8000 м 6/3 500 м
[Cu med, cong Ac As]
+25.5 +24.8 96 +36 +36 очень
душно
1007.6 1007.4
00 15.06 СЗ 8 10 км осадки на расстоянии {туман} 10/4 480 м
[Sc Ac As]
+26.5 +25.2 93 +38 +39 очень
душно
1006.5 1006.3 15
03 15.06 СЗ 4 10 км осадки на расстоянии {ливн. осадки, туман} 10/4 480 м
[Sc Ac As]
+26.8 +25.1 90 +39 +41 очень
душно
1008.2 1008.0 1
06 15.06 Ю 3 20 км в посл. час дождь 10/4 600 м
[Cu med, cong Ac As]
+29.6 +26.2 82 +45 +47 опасность
перегрева
1008.4 1008.2 1
09 15.06 В 2 10 км слаб. дождь 10/4 480 м
[Sc Ac As]
+27.0 +25.7 93 +40 +40 очень
душно
1006.5 1006.3 3
12 15.06 ЮВ 2 8000 м осадки на расстоянии 9/4 480 м
[Sc Ac As]
+26.2 +25.3 95 +38 +38 очень
душно
1007.2 1007.0 +29.5 3
15 15.06 Ю 1 8000 м 6/4 480 м
[Sc Ac As]
+26.0 +24.7 93 +37 +37 очень
душно
1008.2 1008.0
18 15.06 Ю 3 8000 м 5/4 480 м
[Sc Ac As]
+25.3 +24.2 94 +35 +35 очень
душно
800.8
21 15.06 Ю 1 8000 м 5/3 500 м
[Cu med, cong Ac As]
+25.2 +23.6 91 +34 +34 очень
душно
1006.7 1006.5
00 16.06 Ю 2 12 км мгла {туман} 5/3 500 м
[Cu med, cong Ci fib]
+27.5 +25.5 89 +40 +45 очень
душно
1008.2 1008.0 +25.0 4
03 16.06 Ю 2 12 км мгла {туман} 6/4 500 м
[Cu med, cong Ac As]
+31.4 +26.8 77 +49 +58 опасность
перегрева
1008.2 1008.0
06 16.06 В 4 10 км осадки на расстоянии {ливн. осадки, туман} 9/4 480 м
[Sc Ac As]
+32.5 +26.7 72 +50 +53 опасность
перегрева
1007.2 1007.0 0.0
09 16.06 Ю 2 10 км гроза без осадков {ливн. осадки} 9/4 480 м
[Cb cap Ac As]
+29.5 +26.3 83 +45 +46 опасность
перегрева
1007.2 1007.0 0.0
12 16.06 Ю 2 8000 м {гроза, ливн. осадки} 8/4 480 м
[Sc Ac As]
+28.5 +25.9 86 +43 +43 опасность
перегрева
1009.0 1008.8 +33.0 0.0
15 16.06 Ю 2 8000 м 8/4 480 м
[Sc Ac As]
+27.5 +25.5 89 +40 +40 очень
душно
1009.9 1009.7
18 16.06 Ю 2 8000 м 5/3 500 м
[Cu med, cong Ac As]
+27.0 +25.0 89 +39 +39 очень
душно
1008.7 1008.5
21 16.06 В 4 8000 м 5/3 500 м
[Cu med, cong Ac As]
+26.0 +24.2 90 +36 +36 очень
душно
1008.2 1008.0
00 17.06 Ю 3 12 км мгла {туман} 6/3 500 м
[Cu med, cong Ci fib]
+28.0 +26.0 89 +42 +46 опасность
перегрева
1009.3 1009.1 +25.0 0.0
03 17.06 Ю 2 12 км мгла {туман} 4/1 500 м
[Cu med, cong Ci fib]
+32.7 +29.1 81 +56 +74 опасность
перегрева
1009.1 1008.9
06 17.06 Ю 3 12 км мгла {туман} 8/3 500 м
[Cu med, cong Ci fib]
+35.0 +28.5 69 +57 +65 опасность
перегрева
1007.9 1007.7
09 17.06 Ю 3 12 км мгла {туман} 8/3 480 м
[Cu med, cong Ci fib]
+34.0 +27.9 71 +55 +56 опасность
перегрева
1007.6 1007.4
12 17.06 В 2 8000 м {туман} 9/4 480 м
[Cu med, cong Ci sp]
+30.1 +28.2 90 +51 +51 опасность
перегрева
1009.7 1009.5 +35.6
15 17.06 В 2 8000 м 9/0 300 м
[Ac As Cc]
+28.8 +25.7 83 +43 +43 опасность
перегрева
1010.6 1010.4
18 17.06 В 2 8000 м 4/1 480 м
[Cu med, cong Ci fib]
+27.7 +25.7 89 +41 +41 опасность
перегрева
1010.0 1009.8
21 17.06 В 2 8000 м 4/1 480 м
[Cu med, cong Ci fib]
+26.8 +25.6 93 +39 +39 очень
душно
1009.9 1009.7
00 18.06 Ю 3 12 км мгла {туман} 4/1 500 м
[Cu hum Ci fib]
+28.6 +26.5 88 +44 +49 опасность
перегрева
1010.8 1010.6 +25.6
03 18.06 Ю 3 12 км мгла {туман} 4/3 500 м
[Cu med, cong Ci fib]
+34.0 +27.7 70 +54 +66 опасность
перегрева
1010.8 1010.6
06 18.06 Ю 2 12 км мгла {туман} 4/3 500 м
[Cu med, cong Ci fib]
+35.8 +27.8 64 +56 +68 опасность
перегрева
1008.3 1008.1
09 18.06 С 5 12 км осадки на расстоянии {туман} 8/4 500 м
[Cu med, cong Ac As]
+32.7 +28.0 76 +53 +53 опасность
перегрева
1007.8 1007.6
12 18.06 С 3 8000 м зарница {гроза, ливн. осадки} 8/4 480 м
[Cb cap Ac As]
+29.0 +25.7 82 +43 +43 опасность
перегрева
1009.8 1009.6 +36.5 12
15 18.06 С 1 8000 м 5/3 480 м
[Cu med, cong Ac As]
+28.8 +25.5 82 +42 +42 опасность
перегрева
1011.0 1010.8
18 18.06 ЮВ 1 8000 м 4/3 480 м
[Cu med, cong Ci fib]
+27.0 +25.7 93 +40 +40 очень
душно
1009.9 1009.7
21 18.06 Ю 1 8000 м 3/3 480 м
[Cu hum]
+26.5 +25.2 93 +38 +38 очень
душно
1009.4 1009.2
00 19.06 Ю 1 12 км мгла {туман} 3/3 480 м
[Cu hum]
+28.5 +25.2 82 +41 +47 опасность
перегрева
1010.3 1010.1 +26.0 12
03 19.06 В 2 12 км мгла {туман} 5/3 500 м
[Cu med, cong Ac As]
+32.5 +25.3 66 +47 +58 опасность
перегрева
1010.3 1010.1
06 19.06 СЗ 3 10 км мгла {туман} 8/3 480 м
[Cu med, cong Ac As]
+33.5 +26.4 66 +50 +55 опасность
перегрева
1007.3 1007.1

 

Местоположение метеостанции Дагупан (Филиппины): широта 16.05 долгота 120.33 высота над уровнем моря 2 м.

В архиве по умолчанию представлена погода в Дагупане за последнюю неделю. Архивные данные за месяц целиком и за предыдущие месяцы, начиная с января 2011 года, Вы можете получить, выбрав интересующий диапазон дат из раскрывающегося списка и нажав кнопку "Ввод!".


*Определитесь, кто Вы:
робот инопланетянин человек

Внимание! Время в таблицах - всемирное. Для получения местного времени необходимо прибавить поправку, которая равна 8 ч.

Смотрите также архив погоды в соседних городах и на ближайших метеорологических станциях:

Погода в Багио (Филиппины) (50 км)
Погода в Ибе (Филиппины) (89 км)
Погода в Кабанатуане (Филиппины) (93 км)
Погода на Базе ВВС Clark (Филиппины) (101 км)
Погода в Куби Пойнт (Филиппины) (139 км)
Погода в Балер Радар (Филиппины) (143 км)
Погода в Научном саду (Филиппины) (174 км)
Погода в Маниле (Филиппины) (178 км)
Погода в Сангли Пойнт (Филиппины) (183 км)
Погода в Аэропорту Ninoy Aquino (Филиппины) (185 км)

Пояснения к столбцам:

Ветер - указаны скорость ветра в м/с - средняя за 10 мин, порывы в срок и между сроками (в фигурных скобках) и направление, откуда дует ветер: С - северный, СВ - северо-восточный, В - восточный, ЮВ - юго-восточный, Ю - южный, ЮЗ - юго-западный, З - западный, СЗ - северо-западный.
Видимость - горизонтальная дальность видимости в метрах или километрах. При видимости от 1 до 10 км при отсутствии осадков обычно наблюдается дымка, при ухудшении видимости до 1 км и менее - туман. В сухую погоду видимость может ухудшаться дымом, пылью или мглою.
Явления - указаны атмосферные явления, наблюдавшиеся в срок или в последний час перед сроком; фигурными скобками обозначены явления, наблюдавшиеся между сроками (за 1-3 часа до срока); квадратными скобками обозначены град или гололедные отложения с указанием их диаметра в мм.
Облачность - указаны через наклонную черту общая и нижняя облачность в баллах и высота нижней границы облаков в метрах; квадратными скобками обозначены формы облаков: Ci - перистые, Cs - перисто-слоистые, Cc - перисто-кучевые, Ac - высококучевые, As - высокослоистые, Sc - слоисто-кучевые, Ns - слоисто-дождевые, Cu - кучевые, Cb - кучево-дождевые. Подробнее классификацию облаков см. в Атласе облаков (PDF).
T - Температура воздуха - температура, измеренная на высоте 2 м над землей.
Td - Температура точки росы - температура, при понижении до которой содержащийся в воздухе водяной пар достигнет насыщения.
f - Относительная влажность воздуха - влажноcть воздуха, измеренная на высоте 2 м над землей.
Te - Эффективная температура - температура, которую ощущает одетый по сезону человек в тени. Характеристика душности погоды. При расчете учитывается влияние влажности воздуха и скорости ветра на теплоощущения человека.
Tes - Эффективная температура на солнце - температура, которую ощущает человек, с поправкой на солнечный нагрев. Характеристика знойности погоды. Зависит от высоты солнца над горизонтом, облачности и скорости ветра. Ночью, в пасмурную погоду, а также при ветре 12 м/с и более поправка равна нулю.
P - Атмосферное давление - приведенное к уровню моря атмосферное давление.
Po - Атмосферное давление - измеренное на уровне метеостанции атмосферное давление.
Tmin - Минимальная температура - минимум температуры воздуха на высоте 2 м над землей.
Tmax - Максимальная температура - максимум температуры воздуха на высоте 2 м над землей.
R - Количество осадков - Количество выпавших осадков за период времени, мм. При наведении курсора мыши на число - период времени, за который выпало указанное количество осадков.
R24 - Количество осадков - Количество выпавших осадков за 24 часа, мм.
S - Снежный покров - Высота снежного покрова, см. При наведении курсора мыши на число - состояние снежного покрова и степень покрытия местности в баллах.